| time (UTC) | temp F | wind direction | speed knots | gust knots | rain 1hr in | rain 24hr in | rain mn in | humidity % | barometer mb |
| 20260508115543 | 46 | 0 | 0.0 | 0.0 | 0.00 | 0.15 | 0.01 | 98 | 1017.7 |
| 20260508115042 | 46 | 0 | 0.0 | 0.0 | 0.00 | 0.15 | 0.01 | 98 | 1017.6 |
| 20260508114551 | 46 | 0 | 0.0 | 0.0 | 0.00 | 0.15 | 0.01 | 98 | 1017.5 |
| 20260508114044 | 45 | 0 | 0.0 | 0.0 | 0.00 | 0.15 | 0.01 | 98 | 1017.4 |
| 20260508113545 | 45 | 0 | 0.0 | 0.0 | 0.00 | 0.15 | 0.01 | 98 | 1017.3 |
| 20260508113115 | 45 | 0 | 0.0 | 0.0 | 0.00 | 0.15 | 0.01 | 98 | 1017.3 |
| 20260508112544 | 44 | 0 | 0.0 | 0.0 | 0.00 | 0.15 | 0.01 | 98 | 1017.3 |
| 20260508112044 | 44 | 0 | 0.0 | 0.0 | 0.00 | 0.15 | 0.01 | 98 | 1017.3 |
| 20260508111601 | 44 | 0 | 0.0 | 0.0 | 0.00 | 0.15 | 0.01 | 98 | 1017.3 |
| 20260508111045 | 44 | 0 | 0.0 | 0.0 | 0.00 | 0.15 | 0.01 | 98 | 1017.2 |
| 20260508110545 | 44 | 0 | 0.0 | 0.0 | 0.00 | 0.15 | 0.01 | 98 | 1017.0 |
| 20260508110059 | 44 | 0 | 0.0 | 0.0 | 0.00 | 0.15 | 0.01 | 98 | 1016.9 |
| 20260508105545 | 44 | 0 | 0.0 | 0.0 | 0.00 | 0.15 | 0.01 | 98 | 1016.9 |
| 20260508105044 | 44 | 0 | 0.0 | 0.0 | 0.00 | 0.15 | 0.01 | 97 | 1016.7 |
| 20260508104552 | 43 | 0 | 0.0 | 0.0 | 0.00 | 0.15 | 0.01 | 97 | 1016.3 |
| 20260508104043 | 43 | 0 | 0.0 | 0.0 | 0.00 | 0.15 | 0.01 | 97 | 1016.4 |
| 20260508103543 | 44 | 0 | 0.0 | 0.0 | 0.00 | 0.15 | 0.01 | 98 | 1016.2 |
| 20260508103052 | 44 | 0 | 0.0 | 0.0 | 0.00 | 0.15 | 0.01 | 97 | 1016.1 |
| 20260508102544 | 44 | 0 | 0.0 | 0.0 | 0.00 | 0.15 | 0.01 | 98 | 1016.0 |
| 20260508102044 | 44 | 0 | 0.0 | 0.0 | 0.00 | 0.15 | 0.01 | 97 | 1015.9 |
| 20260508101553 | 44 | 0 | 0.0 | 0.0 | 0.01 | 0.15 | 0.01 | 97 | 1016.0 |
| 20260508101043 | 44 | 0 | 0.0 | 0.0 | 0.01 | 0.15 | 0.01 | 98 | 1016.0 |
| 20260508100543 | 44 | 0 | 0.0 | 0.0 | 0.01 | 0.15 | 0.01 | 97 | 1015.9 |
| 20260508100051 | 44 | 0 | 0.0 | 0.0 | 0.01 | 0.15 | 0.01 | 98 | 1016.0 |
| 20260508095544 | 44 | 0 | 0.0 | 0.0 | 0.01 | 0.16 | 0.01 | 97 | 1015.9 |
| 20260508095044 | 45 | 0 | 0.0 | 0.0 | 0.01 | 0.16 | 0.01 | 97 | 1015.8 |
| 20260508094555 | 45 | 0 | 0.0 | 0.0 | 0.01 | 0.16 | 0.01 | 97 | 1015.7 |
| 20260508094044 | 45 | 0 | 0.0 | 0.0 | 0.01 | 0.16 | 0.01 | 98 | 1015.6 |
| 20260508093543 | 45 | 0 | 0.0 | 0.0 | 0.01 | 0.16 | 0.01 | 98 | 1015.6 |
| 20260508093056 | 45 | 0 | 0.0 | 0.0 | 0.01 | 0.16 | 0.01 | 98 | 1015.6 |
| 20260508092542 | 45 | 0 | 0.0 | 0.0 | 0.01 | 0.16 | 0.01 | 97 | 1015.5 |
| 20260508092043 | 45 | 0 | 0.0 | 0.0 | 0.01 | 0.16 | 0.01 | 97 | 1015.6 |
| 20260508091552 | 45 | 0 | 0.0 | 0.0 | 0.00 | 0.15 | 0.00 | 97 | 1015.5 |
| 20260508091046 | 45 | 0 | 0.0 | 0.0 | 0.00 | 0.15 | 0.00 | 98 | 1015.4 |
| 20260508090543 | 45 | 0 | 0.0 | 0.0 | 0.00 | 0.15 | 0.00 | 97 | 1015.4 |
| 20260508090051 | 45 | 0 | 0.0 | 0.0 | 0.00 | 0.15 | 0.00 | 97 | 1015.5 |
| 20260508085542 | 45 | 0 | 0.0 | 0.0 | 0.00 | 0.16 | 0.00 | 97 | 1015.5 |
| 20260508085124 | 46 | 0 | 0.0 | 0.0 | 0.00 | 0.16 | 0.00 | 97 | 1015.5 |
| 20260508084551 | 46 | 0 | 0.0 | 0.0 | 0.00 | 0.16 | 0.00 | 97 | 1015.4 |
| 20260508084043 | 46 | 0 | 0.0 | 0.0 | 0.00 | 0.16 | 0.00 | 97 | 1015.5 |
| 20260508083545 | 46 | 0 | 0.0 | 0.0 | 0.00 | 0.16 | 0.00 | 97 | 1015.5 |
| 20260508083107 | 46 | 0 | 0.0 | 0.0 | 0.00 | 0.16 | 0.00 | 97 | 1015.6 |
| 20260508082545 | 46 | 0 | 0.0 | 0.0 | 0.00 | 0.16 | 0.00 | 97 | 1015.3 |
| 20260508082042 | 46 | 0 | 0.0 | 0.0 | 0.00 | 0.16 | 0.00 | 97 | 1015.4 |
| 20260508081554 | 46 | 0 | 0.0 | 0.0 | 0.00 | 0.16 | 0.00 | 97 | 1015.4 |
| 20260508081043 | 46 | 0 | 0.0 | 0.0 | 0.00 | 0.16 | 0.00 | 97 | 1015.3 |
| 20260508080544 | 46 | 0 | 0.0 | 0.0 | 0.00 | 0.16 | 0.00 | 97 | 1015.2 |
| 20260508080051 | 47 | 0 | 0.0 | 0.0 | 0.00 | 0.16 | 0.00 | 97 | 1015.1 |
| 20260508075543 | 47 | 0 | 0.0 | 0.0 | 0.00 | 0.18 | 0.00 | 97 | 1015.3 |
| 20260508075043 | 47 | 0 | 0.0 | 0.0 | 0.00 | 0.18 | 0.00 | 97 | 1015.2 |
| 20260508074551 | 47 | 0 | 0.0 | 0.0 | 0.00 | 0.18 | 0.00 | 97 | 1015.0 |
| 20260508074044 | 47 | 0 | 0.0 | 0.0 | 0.00 | 0.18 | 0.00 | 97 | 1015.0 |
| 20260508073543 | 47 | 0 | 0.0 | 0.0 | 0.00 | 0.18 | 0.00 | 97 | 1014.9 |
| 20260508073050 | 47 | 0 | 0.0 | 0.0 | 0.00 | 0.18 | 0.00 | 97 | 1014.9 |
| 20260508072542 | 47 | 0 | 0.0 | 0.0 | 0.00 | 0.18 | 0.00 | 97 | 1014.8 |
| 20260508072043 | 47 | 0 | 0.0 | 0.0 | 0.00 | 0.18 | 0.00 | 97 | 1015.0 |
| 20260508071552 | 47 | 0 | 0.0 | 0.0 | 0.00 | 0.18 | 0.00 | 97 | 1014.9 |
| 20260508071043 | 48 | 0 | 0.0 | 0.0 | 0.00 | 0.18 | 0.00 | 97 | 1014.7 |
| 20260508070544 | 48 | 0 | 0.0 | 0.0 | 0.00 | 0.18 | 0.00 | 97 | 1014.7 |
| 20260508070057 | 48 | 0 | 0.0 | 0.0 | 0.00 | 0.18 | 0.00 | 97 | 1014.6 |
| 20260508065543 | 48 | 0 | 0.0 | 0.0 | 0.00 | 0.22 | 0.00 | 97 | 1014.5 |
| 20260508065042 | 48 | 0 | 0.0 | 0.0 | 0.00 | 0.22 | 0.00 | 97 | 1014.5 |
| 20260508064559 | 48 | 0 | 0.0 | 0.0 | 0.00 | 0.22 | 0.00 | 97 | 1014.6 |
| 20260508064043 | 48 | 0 | 0.0 | 0.0 | 0.00 | 0.22 | 0.00 | 97 | 1014.6 |
| 20260508063543 | 48 | 0 | 0.0 | 0.0 | 0.00 | 0.22 | 0.00 | 97 | 1014.6 |
| 20260508063052 | 48 | 0 | 0.0 | 0.0 | 0.00 | 0.22 | 0.00 | 97 | 1014.6 |
| 20260508062543 | 48 | 0 | 0.0 | 0.0 | 0.00 | 0.22 | 0.00 | 97 | 1014.6 |
| 20260508062043 | 49 | 0 | 0.0 | 0.0 | 0.00 | 0.22 | 0.00 | 97 | 1014.6 |
| 20260508061556 | 49 | 0 | 0.0 | 0.0 | 0.00 | 0.22 | 0.00 | 97 | 1014.7 |
| 20260508061043 | 49 | 0 | 0.0 | 0.0 | 0.00 | 0.22 | 0.00 | 97 | 1014.7 |
| 20260508060543 | 49 | 0 | 0.0 | 0.9 | 0.00 | 0.22 | 0.00 | 97 | 1014.7 |
| 20260508060054 | 49 | 0 | 0.0 | 0.9 | 0.00 | 0.22 | 0.00 | 97 | 1014.8 |
| 20260508055542 | 49 | 0 | 0.0 | 0.9 | 0.00 | 0.27 | 0.00 | 97 | 1014.7 |
| 20260508055042 | 49 | 0 | 0.0 | 0.9 | 0.00 | 0.27 | 0.00 | 97 | 1014.7 |
| 20260508054552 | 49 | 0 | 0.0 | 0.9 | 0.00 | 0.27 | 0.00 | 97 | 1014.6 |
| 20260508054045 | 49 | 0 | 0.0 | 0.0 | 0.00 | 0.27 | 0.00 | 97 | 1014.6 |
| 20260508053542 | 49 | 0 | 0.0 | 0.0 | 0.00 | 0.27 | 0.00 | 97 | 1014.6 |
| 20260508053055 | 49 | 0 | 0.0 | 0.0 | 0.00 | 0.27 | 0.00 | 97 | 1014.6 |
| 20260508052542 | 49 | 0 | 0.0 | 0.9 | 0.00 | 0.27 | 0.00 | 97 | 1014.7 |
| 20260508052042 | 50 | 0 | 0.0 | 0.9 | 0.00 | 0.27 | 0.00 | 97 | 1014.7 |
| 20260508051556 | 50 | 0 | 0.0 | 0.0 | 0.00 | 0.27 | 0.00 | 97 | 1014.8 |
| 20260508051042 | 50 | 0 | 0.0 | 0.0 | 0.00 | 0.27 | 0.00 | 97 | 1014.6 |
| 20260508050543 | 50 | 0 | 0.0 | 0.0 | 0.00 | 0.27 | 0.00 | 97 | 1014.6 |
| 20260508050052 | 50 | 0 | 0.0 | 0.0 | 0.00 | 0.27 | 0.00 | 97 | 1014.6 |
| 20260508045544 | 50 | 0 | 0.0 | 0.0 | 0.00 | 0.27 | 0.00 | 97 | 1014.6 |
| 20260508045042 | 50 | 0 | 0.0 | 0.0 | 0.00 | 0.27 | 0.00 | 97 | 1014.6 |
| 20260508044554 | 50 | 0 | 0.0 | 0.0 | 0.00 | 0.27 | 0.00 | 97 | 1014.5 |
| 20260508044045 | 50 | 0 | 0.0 | 0.0 | 0.00 | 0.27 | 0.00 | 97 | 1014.3 |
| 20260508043542 | 50 | 0 | 0.0 | 0.0 | 0.00 | 0.27 | 0.00 | 97 | 1014.3 |
| 20260508043107 | 50 | 0 | 0.0 | 0.0 | 0.00 | 0.27 | 0.00 | 97 | 1014.2 |
| 20260508042543 | 50 | 0 | 0.0 | 0.0 | 0.00 | 0.27 | 0.00 | 97 | 1014.3 |
| 20260508042042 | 51 | 0 | 0.0 | 0.0 | 0.00 | 0.27 | 0.00 | 97 | 1014.3 |
| 20260508041555 | 51 | 0 | 0.0 | 0.0 | 0.00 | 0.27 | 0.00 | 97 | 1014.3 |
| 20260508041042 | 51 | 0 | 0.0 | 0.0 | 0.00 | 0.27 | 0.00 | 97 | 1014.1 |
| 20260508040543 | 51 | 0 | 0.0 | 0.0 | 0.00 | 0.27 | 0.00 | 97 | 1014.2 |
| 20260508040057 | 51 | 0 | 0.0 | 0.0 | 0.00 | 0.27 | 0.00 | 97 | 1014.2 |
| 20260508035543 | 51 | 0 | 0.0 | 0.0 | 0.00 | 0.47 | 0.27 | 97 | 1014.1 |
| 20260508035043 | 51 | 0 | 0.0 | 0.0 | 0.00 | 0.47 | 0.27 | 97 | 1013.9 |
| 20260508034556 | 51 | 0 | 0.0 | 0.0 | 0.00 | 0.47 | 0.27 | 97 | 1014.1 |
| 20260508034042 | 51 | 0 | 0.0 | 0.0 | 0.00 | 0.47 | 0.27 | 97 | 1014.1 |
| 20260508033543 | 51 | 0 | 0.0 | 0.0 | 0.00 | 0.47 | 0.27 | 97 | 1014.2 |
| 20260508033054 | 51 | 0 | 0.0 | 0.0 | 0.00 | 0.47 | 0.27 | 97 | 1014.2 |
| 20260508032543 | 51 | 0 | 0.0 | 0.0 | 0.00 | 0.47 | 0.27 | 97 | 1014.1 |
| 20260508032045 | 51 | 0 | 0.0 | 0.0 | 0.00 | 0.47 | 0.27 | 97 | 1014.1 |
| 20260508031552 | 51 | 0 | 0.0 | 0.0 | 0.00 | 0.47 | 0.27 | 97 | 1014.0 |
| 20260508031042 | 52 | 0 | 0.0 | 0.0 | 0.00 | 0.47 | 0.27 | 97 | 1013.9 |
| 20260508030543 | 51 | 0 | 0.0 | 0.0 | 0.00 | 0.47 | 0.27 | 97 | 1013.8 |
| 20260508030049 | 51 | 0 | 0.0 | 0.0 | 0.00 | 0.47 | 0.27 | 97 | 1013.7 |
| 20260508025543 | 52 | 0 | 0.0 | 0.0 | 0.00 | 0.54 | 0.27 | 97 | 1013.7 |
| 20260508025043 | 52 | 0 | 0.0 | 0.0 | 0.00 | 0.54 | 0.27 | 97 | 1013.6 |
| 20260508024552 | 52 | 0 | 0.0 | 0.0 | 0.00 | 0.54 | 0.27 | 97 | 1013.8 |
| 20260508024043 | 52 | 0 | 0.0 | 0.0 | 0.00 | 0.54 | 0.27 | 97 | 1013.7 |
| 20260508023544 | 52 | 0 | 0.0 | 0.0 | 0.00 | 0.54 | 0.27 | 96 | 1013.6 |
| 20260508023055 | 52 | 0 | 0.0 | 0.0 | 0.00 | 0.54 | 0.27 | 96 | 1013.5 |
| 20260508022543 | 52 | 0 | 0.0 | 0.0 | 0.00 | 0.54 | 0.27 | 96 | 1013.6 |
| 20260508022043 | 52 | 0 | 0.0 | 0.0 | 0.00 | 0.54 | 0.27 | 96 | 1013.5 |
| 20260508021553 | 52 | 0 | 0.0 | 0.0 | 0.00 | 0.54 | 0.27 | 96 | 1013.5 |
| 20260508021042 | 52 | 0 | 0.0 | 0.0 | 0.00 | 0.54 | 0.27 | 96 | 1013.4 |
| 20260508020545 | 53 | 0 | 0.0 | 0.0 | 0.00 | 0.54 | 0.27 | 96 | 1013.3 |
| 20260508020053 | 53 | 0 | 0.0 | 0.0 | 0.00 | 0.54 | 0.27 | 96 | 1013.1 |
| 20260508015542 | 53 | 0 | 0.0 | 0.0 | 0.00 | 0.57 | 0.27 | 96 | 1013.2 |
| 20260508015046 | 53 | 0 | 0.0 | 0.0 | 0.00 | 0.57 | 0.27 | 96 | 1013.2 |
| 20260508014548 | 53 | 0 | 0.0 | 0.0 | 0.00 | 0.57 | 0.27 | 96 | 1013.0 |
| 20260508014042 | 53 | 0 | 0.0 | 0.9 | 0.00 | 0.57 | 0.27 | 96 | 1012.9 |
| 20260508013546 | 53 | 0 | 0.0 | 0.9 | 0.00 | 0.57 | 0.27 | 96 | 1012.8 |
| 20260508013053 | 53 | 0 | 0.0 | 0.0 | 0.00 | 0.57 | 0.27 | 96 | 1012.6 |
| 20260508012543 | 54 | 0 | 0.0 | 1.7 | 0.00 | 0.57 | 0.27 | 96 | 1012.7 |
| 20260508012043 | 54 | 0 | 0.0 | 1.7 | 0.00 | 0.57 | 0.27 | 96 | 1012.5 |
| 20260508011552 | 54 | 0 | 0.9 | 1.7 | 0.00 | 0.57 | 0.27 | 96 | 1012.4 |
| 20260508011042 | 54 | 0 | 0.0 | 0.0 | 0.00 | 0.57 | 0.27 | 95 | 1012.1 |
| 20260508010542 | 54 | 0 | 0.0 | 0.0 | 0.00 | 0.57 | 0.27 | 95 | 1012.1 |
| 20260508010052 | 55 | 0 | 0.0 | 0.9 | 0.00 | 0.57 | 0.27 | 95 | 1012.0 |
| 20260508005542 | 55 | 0 | 0.0 | 0.9 | 0.00 | 0.58 | 0.27 | 95 | 1011.9 |
| 20260508005044 | 55 | 0 | 0.0 | 1.7 | 0.00 | 0.58 | 0.27 | 95 | 1011.8 |
| 20260508004549 | 55 | 0 | 0.0 | 2.6 | 0.00 | 0.58 | 0.27 | 95 | 1011.8 |
| 20260508004042 | 55 | 0 | 0.0 | 2.6 | 0.00 | 0.58 | 0.27 | 95 | 1011.7 |
| 20260508003543 | 56 | 86 | 0.9 | 3.5 | 0.00 | 0.58 | 0.27 | 94 | 1011.6 |
| 20260508003052 | 56 | 84 | 0.0 | 3.5 | 0.00 | 0.58 | 0.27 | 94 | 1011.7 |
| 20260508002542 | 56 | 0 | 0.9 | 3.5 | 0.00 | 0.58 | 0.27 | 94 | 1011.5 |
| 20260508002043 | 56 | 34 | 0.0 | 2.6 | 0.00 | 0.58 | 0.27 | 94 | 1011.4 |
| 20260508001548 | 56 | 34 | 0.0 | 2.6 | 0.00 | 0.58 | 0.27 | 94 | 1011.3 |
| 20260508001042 | 56 | 0 | 0.0 | 2.6 | 0.00 | 0.58 | 0.27 | 94 | 1011.4 |
| 20260508000542 | 57 | 0 | 0.0 | 2.6 | 0.00 | 0.58 | 0.27 | 94 | 1011.3 |
| 20260508000051 | 57 | 71 | 0.0 | 2.6 | 0.00 | 0.58 | 0.27 | 93 | 1011.4 |
| 20260507235542 | 57 | 65 | 0.9 | 2.6 | 0.00 | 0.58 | 0.27 | 93 | 1011.2 |
| 20260507235042 | 57 | 67 | 0.0 | 1.7 | 0.00 | 0.58 | 0.27 | 93 | 1011.2 |
| 20260507234550 | 57 | 0 | 0.0 | 4.3 | 0.00 | 0.58 | 0.27 | 93 | 1011.2 |
| 20260507234042 | 57 | 22 | 0.9 | 4.3 | 0.00 | 0.58 | 0.27 | 93 | 1011.2 |
| 20260507233545 | 57 | 50 | 0.9 | 4.3 | 0.00 | 0.58 | 0.27 | 93 | 1011.2 |
| 20260507233050 | 57 | 0 | 0.9 | 2.6 | 0.00 | 0.58 | 0.27 | 93 | 1011.1 |
| 20260507232542 | 58 | 0 | 0.0 | 1.7 | 0.00 | 0.58 | 0.27 | 93 | 1011.1 |
| 20260507232042 | 57 | 0 | 0.0 | 1.7 | 0.01 | 0.58 | 0.27 | 93 | 1011.0 |
| 20260507231554 | 57 | 0 | 0.0 | 1.7 | 0.01 | 0.58 | 0.27 | 93 | 1010.8 |
| 20260507231042 | 57 | 109 | 0.0 | 5.2 | 0.01 | 0.58 | 0.27 | 93 | 1010.6 |
| 20260507230543 | 58 | 114 | 1.7 | 5.2 | 0.01 | 0.58 | 0.27 | 93 | 1010.6 |
| 20260507230051 | 58 | 124 | 0.0 | 2.6 | 0.01 | 0.58 | 0.27 | 92 | 1010.7 |
| 20260507225544 | 58 | 80 | 0.0 | 2.6 | 0.01 | 0.58 | 0.27 | 92 | 1010.7 |
| 20260507225046 | 58 | 0 | 0.9 | 6.1 | 0.01 | 0.58 | 0.27 | 93 | 1010.6 |
| 20260507224549 | 58 | 66 | 0.0 | 6.1 | 0.01 | 0.58 | 0.27 | 93 | 1010.2 |
| 20260507224045 | 58 | 88 | 1.7 | 7.0 | 0.01 | 0.58 | 0.27 | 91 | 1010.4 |
| 20260507223542 | 58 | 113 | 1.7 | 7.0 | 0.01 | 0.58 | 0.27 | 91 | 1010.5 |
| 20260507223051 | 58 | 76 | 1.7 | 5.2 | 0.01 | 0.58 | 0.27 | 91 | 1010.3 |
| 20260507222542 | 58 | 85 | 0.9 | 6.1 | 0.01 | 0.58 | 0.27 | 91 | 1009.9 |
| 20260507222042 | 58 | 0 | 1.7 | 7.8 | 0.00 | 0.57 | 0.26 | 89 | 1010.0 |
| 20260507221551 | 58 | 80 | 2.6 | 7.8 | 0.00 | 0.57 | 0.26 | 88 | 1009.7 |
| 20260507221044 | 58 | 49 | 2.6 | 11.3 | 0.00 | 0.57 | 0.26 | 87 | 1009.5 |
| 20260507220541 | 59 | 18 | 2.6 | 11.3 | 0.00 | 0.57 | 0.26 | 87 | 1009.6 |
| 20260507220046 | 59 | 89 | 3.5 | 10.4 | 0.00 | 0.57 | 0.26 | 87 | 1009.5 |
| 20260507215544 | 59 | 80 | 2.6 | 7.8 | 0.00 | 0.57 | 0.26 | 87 | 1009.6 |
| 20260507215042 | 59 | 75 | 0.9 | 5.2 | 0.00 | 0.57 | 0.26 | 87 | 1009.9 |
| 20260507214606 | 59 | 36 | 0.9 | 6.1 | 0.00 | 0.57 | 0.26 | 89 | 1009.8 |
| 20260507214042 | 59 | 71 | 1.7 | 7.8 | 0.00 | 0.57 | 0.26 | 86 | 1009.6 |
| 20260507213544 | 59 | 78 | 1.7 | 11.3 | 0.00 | 0.57 | 0.26 | 85 | 1009.3 |
| 20260507213058 | 60 | 84 | 3.5 | 11.3 | 0.00 | 0.57 | 0.26 | 86 | 1009.1 |
| 20260507212542 | 61 | 40 | 4.3 | 11.3 | 0.00 | 0.57 | 0.26 | 83 | 1009.3 |
| 20260507212045 | 62 | 68 | 2.6 | 10.4 | 0.00 | 0.57 | 0.26 | 83 | 1009.1 |
| 20260507211600 | 62 | 0 | 2.6 | 9.6 | 0.00 | 0.57 | 0.26 | 87 | 1009.0 |
| 20260507211043 | 62 | 146 | 2.6 | 9.6 | 0.00 | 0.57 | 0.26 | 86 | 1009.3 |
| 20260507210542 | 60 | 98 | 1.7 | 8.7 | 0.00 | 0.57 | 0.26 | 90 | 1009.2 |
| 20260507210052 | 60 | 81 | 2.6 | 8.7 | 0.00 | 0.57 | 0.26 | 89 | 1009.4 |
| 20260507205542 | 60 | 244 | 2.6 | 8.7 | 0.00 | 0.57 | 0.26 | 88 | 1009.1 |
| 20260507205043 | 60 | 36 | 3.5 | 10.4 | 0.00 | 0.57 | 0.26 | 87 | 1009.3 |
| 20260507204607 | 61 | 145 | 2.6 | 10.4 | 0.00 | 0.57 | 0.26 | 85 | 1009.2 |
| 20260507204046 | 61 | 83 | 2.6 | 9.6 | 0.00 | 0.57 | 0.26 | 87 | 1009.1 |
| 20260507203543 | 61 | 61 | 3.5 | 10.4 | 0.00 | 0.57 | 0.26 | 86 | 1008.9 |
| 20260507203056 | 62 | 46 | 5.2 | 10.4 | 0.00 | 0.57 | 0.26 | 86 | 1009.2 |
| 20260507202544 | 63 | 53 | 2.6 | 9.6 | 0.00 | 0.57 | 0.26 | 85 | 1009.1 |
| 20260507202044 | 63 | 115 | 2.6 | 9.6 | 0.00 | 0.57 | 0.26 | 85 | 1008.9 |
| 20260507201553 | 65 | 46 | 2.6 | 11.3 | 0.00 | 0.57 | 0.26 | 85 | 1009.0 |
| 20260507201043 | 67 | 101 | 3.5 | 11.3 | 0.00 | 0.57 | 0.26 | 82 | 1008.7 |
| 20260507200542 | 69 | 61 | 3.5 | 11.3 | 0.00 | 0.57 | 0.26 | 80 | 1008.5 |
| 20260507200054 | 71 | 17 | 0.9 | 4.3 | 0.00 | 0.57 | 0.26 | 83 | 1008.3 |
| 20260507195543 | 71 | 188 | 0.9 | 5.2 | 0.00 | 0.57 | 0.26 | 83 | 1007.8 |
| 20260507195043 | 70 | 0 | 0.9 | 5.2 | 0.00 | 0.57 | 0.26 | 83 | 1007.7 |
| 20260507194633 | 71 | 73 | 1.7 | 6.1 | 0.00 | 0.57 | 0.26 | 82 | 1007.7 |
| 20260507194042 | 70 | 67 | 1.7 | 7.8 | 0.00 | 0.57 | 0.26 | 81 | 1007.8 |
| 20260507193542 | 73 | 187 | 3.5 | 7.8 | 0.00 | 0.57 | 0.26 | 76 | 1007.9 |
| 20260507193053 | 75 | 23 | 0.9 | 7.0 | 0.00 | 0.57 | 0.26 | 70 | 1008.0 |
| 20260507192541 | 73 | 134 | 1.7 | 7.0 | 0.00 | 0.57 | 0.26 | 73 | 1007.9 |
| 20260507192042 | 74 | 284 | 4.3 | 7.0 | 0.00 | 0.57 | 0.26 | 70 | 1007.9 |
| 20260507191553 | 74 | 287 | 2.6 | 6.1 | 0.00 | 0.57 | 0.26 | 68 | 1008.0 |
| 20260507191041 | 75 | 182 | 0.9 | 5.2 | 0.00 | 0.57 | 0.26 | 68 | 1008.0 |
| 20260507190545 | 74 | 242 | 0.9 | 5.2 | 0.00 | 0.57 | 0.26 | 69 | 1008.1 |
| 20260507190055 | 73 | 198 | 0.9 | 6.1 | 0.00 | 0.57 | 0.26 | 79 | 1008.1 |
| 20260507185541 | 73 | 210 | 1.7 | 6.1 | 0.00 | 0.57 | 0.26 | 79 | 1008.1 |
| 20260507185044 | 73 | 275 | 1.7 | 4.3 | 0.00 | 0.57 | 0.26 | 84 | 1008.3 |
| 20260507184605 | 72 | 0 | 0.0 | 2.6 | 0.00 | 0.57 | 0.26 | 79 | 1008.3 |
| 20260507184043 | 72 | 0 | 0.0 | 2.6 | 0.00 | 0.57 | 0.26 | 82 | 1008.4 |
| 20260507183542 | 72 | 206 | 0.9 | 2.6 | 0.00 | 0.57 | 0.26 | 83 | 1008.2 |
| 20260507183055 | 72 | 0 | 0.9 | 2.6 | 0.00 | 0.57 | 0.26 | 81 | 1008.2 |
| 20260507182542 | 71 | 315 | 0.9 | 4.3 | 0.00 | 0.57 | 0.26 | 80 | 1008.3 |
| 20260507182042 | 70 | 0 | 0.9 | 5.2 | 0.00 | 0.57 | 0.26 | 87 | 1008.4 |
| 20260507181554 | 70 | 159 | 1.7 | 5.2 | 0.00 | 0.57 | 0.26 | 84 | 1008.5 |
| 20260507181043 | 71 | 0 | 1.7 | 4.3 | 0.00 | 0.57 | 0.26 | 82 | 1008.5 |
| 20260507180544 | 70 | 282 | 0.0 | 3.5 | 0.00 | 0.57 | 0.26 | 83 | 1008.8 |
| 20260507180057 | 70 | 0 | 0.0 | 3.5 | 0.00 | 0.57 | 0.26 | 85 | 1008.8 |
| 20260507175542 | 69 | 0 | 0.0 | 0.0 | 0.00 | 0.61 | 0.26 | 89 | 1008.8 |
| 20260507175045 | 68 | 0 | 0.0 | 0.0 | 0.00 | 0.61 | 0.26 | 93 | 1008.8 |
| 20260507174555 | 68 | 0 | 0.0 | 0.0 | 0.00 | 0.61 | 0.26 | 92 | 1008.6 |
| 20260507174044 | 68 | 0 | 0.0 | 0.0 | 0.00 | 0.61 | 0.26 | 92 | 1008.8 |
| 20260507173541 | 69 | 0 | 0.0 | 1.7 | 0.00 | 0.61 | 0.26 | 90 | 1008.9 |
| 20260507173055 | 69 | 0 | 0.0 | 3.5 | 0.00 | 0.61 | 0.26 | 89 | 1009.0 |
| 20260507172542 | 68 | 0 | 0.0 | 3.5 | 0.00 | 0.61 | 0.26 | 88 | 1009.2 |
| 20260507172044 | 69 | 332 | 0.0 | 3.5 | 0.00 | 0.61 | 0.26 | 89 | 1009.4 |
| 20260507171554 | 69 | 0 | 0.0 | 1.7 | 0.00 | 0.61 | 0.26 | 90 | 1009.5 |
| 20260507171044 | 69 | 0 | 0.0 | 0.0 | 0.00 | 0.61 | 0.26 | 88 | 1009.4 |
| 20260507170545 | 69 | 0 | 0.0 | 0.0 | 0.00 | 0.61 | 0.26 | 94 | 1009.4 |
| 20260507170052 | 68 | 0 | 0.0 | 0.0 | 0.00 | 0.61 | 0.26 | 92 | 1009.4 |
| 20260507165542 | 68 | 0 | 0.0 | 0.0 | 0.00 | 0.61 | 0.26 | 91 | 1009.5 |
| 20260507165045 | 68 | 0 | 0.0 | 0.0 | 0.00 | 0.61 | 0.26 | 93 | 1009.4 |
| 20260507164556 | 68 | 0 | 0.0 | 1.7 | 0.00 | 0.61 | 0.26 | 95 | 1009.4 |
| 20260507164042 | 67 | 0 | 0.0 | 1.7 | 0.00 | 0.61 | 0.26 | 96 | 1009.2 |
| 20260507163544 | 66 | 207 | 0.0 | 2.6 | 0.00 | 0.61 | 0.26 | 95 | 1009.3 |
| 20260507163107 | 66 | 0 | 0.0 | 2.6 | 0.00 | 0.61 | 0.26 | 95 | 1009.9 |
| 20260507162542 | 67 | 208 | 0.9 | 2.6 | 0.00 | 0.61 | 0.26 | 93 | 1009.9 |
| 20260507162041 | 67 | 0 | 0.9 | 2.6 | 0.00 | 0.61 | 0.26 | 92 | 1009.2 |
| 20260507161555 | 67 | 346 | 0.0 | 1.7 | 0.01 | 0.61 | 0.26 | 94 | 1008.9 |
| 20260507161043 | 67 | 324 | 0.0 | 2.6 | 0.01 | 0.61 | 0.26 | 95 | 1008.8 |
| 20260507160542 | 67 | 49 | 0.0 | 2.6 | 0.01 | 0.61 | 0.26 | 96 | 1009.0 |
| 20260507160052 | 66 | 0 | 0.0 | 2.6 | 0.01 | 0.61 | 0.26 | 95 | 1008.9 |
| 20260507155541 | 66 | 89 | 0.0 | 1.7 | 0.01 | 0.61 | 0.26 | 96 | 1009.1 |
| 20260507155041 | 66 | 338 | 0.0 | 1.7 | 0.01 | 0.61 | 0.26 | 96 | 1008.9 |
| 20260507154559 | 66 | 0 | 0.0 | 0.9 | 0.02 | 0.61 | 0.26 | 96 | 1008.8 |
| 20260507154044 | 66 | 0 | 0.0 | 0.0 | 0.02 | 0.61 | 0.26 | 97 | 1009.1 |
| 20260507153542 | 65 | 0 | 0.0 | 0.9 | 0.02 | 0.61 | 0.26 | 96 | 1009.2 |
| 20260507153054 | 65 | 0 | 0.0 | 0.9 | 0.02 | 0.61 | 0.26 | 96 | 1009.5 |
| 20260507152546 | 65 | 0 | 0.0 | 0.9 | 0.02 | 0.61 | 0.26 | 96 | 1009.5 |
| 20260507152045 | 66 | 0 | 0.0 | 0.0 | 0.02 | 0.61 | 0.26 | 96 | 1009.7 |
| 20260507151554 | 65 | 0 | 0.0 | 1.7 | 0.01 | 0.60 | 0.25 | 96 | 1009.8 |
| 20260507151045 | 65 | 0 | 0.0 | 1.7 | 0.01 | 0.60 | 0.25 | 96 | 1009.8 |
| 20260507150542 | 65 | 0 | 0.0 | 1.7 | 0.02 | 0.60 | 0.25 | 96 | 1010.0 |
| 20260507150057 | 65 | 0 | 0.0 | 5.2 | 0.02 | 0.60 | 0.25 | 96 | 1010.0 |
| 20260507145542 | 65 | 0 | 0.9 | 5.2 | 0.02 | 0.60 | 0.25 | 96 | 1010.4 |
| 20260507145043 | 65 | 0 | 0.0 | 2.6 | 0.02 | 0.60 | 0.25 | 96 | 1010.6 |
| 20260507144551 | 65 | 68 | 0.0 | 1.7 | 0.01 | 0.58 | 0.24 | 96 | 1010.8 |
| 20260507144045 | 66 | 0 | 0.0 | 1.7 | 0.01 | 0.58 | 0.24 | 96 | 1010.5 |
| 20260507143544 | 66 | 66 | 0.0 | 0.0 | 0.01 | 0.58 | 0.24 | 95 | 1010.1 |
| 20260507143101 | 66 | 0 | 0.0 | 0.0 | 0.01 | 0.58 | 0.24 | 96 | 1009.9 |
| 20260507142545 | 65 | 0 | 0.0 | 0.0 | 0.01 | 0.58 | 0.24 | 96 | 1009.9 |
| 20260507142044 | 65 | 0 | 0.0 | 0.0 | 0.01 | 0.58 | 0.24 | 95 | 1009.7 |
| 20260507141552 | 65 | 0 | 0.0 | 0.0 | 0.02 | 0.58 | 0.24 | 96 | 1009.8 |
| 20260507141041 | 65 | 0 | 0.0 | 0.0 | 0.02 | 0.58 | 0.24 | 97 | 1009.8 |
| 20260507140542 | 65 | 0 | 0.0 | 0.0 | 0.02 | 0.58 | 0.23 | 97 | 1009.8 |
| 20260507140053 | 65 | 0 | 0.0 | 0.0 | 0.02 | 0.58 | 0.23 | 97 | 1009.7 |
| 20260507135548 | 65 | 0 | 0.0 | 0.0 | 0.02 | 0.58 | 0.23 | 97 | 1009.9 |
| 20260507135043 | 64 | 0 | 0.0 | 0.0 | 0.03 | 0.58 | 0.23 | 97 | 1009.9 |
| 20260507134550 | 64 | 0 | 0.0 | 0.0 | 0.03 | 0.58 | 0.23 | 97 | 1009.6 |
| 20260507134041 | 64 | 0 | 0.0 | 0.0 | 0.04 | 0.58 | 0.23 | 97 | 1009.6 |
| 20260507133542 | 64 | 0 | 0.0 | 0.0 | 0.04 | 0.58 | 0.23 | 97 | 1009.3 |
| 20260507133051 | 64 | 0 | 0.0 | 0.0 | 0.05 | 0.58 | 0.23 | 97 | 1009.4 |
| 20260507132541 | 64 | 0 | 0.0 | 0.0 | 0.06 | 0.58 | 0.23 | 98 | 1009.5 |
| 20260507132042 | 64 | 0 | 0.0 | 0.0 | 0.07 | 0.58 | 0.23 | 98 | 1009.4 |
| 20260507131610 | 63 | 0 | 0.0 | 0.0 | 0.06 | 0.57 | 0.22 | 98 | 1009.6 |
| 20260507131045 | 64 | 0 | 0.0 | 0.9 | 0.07 | 0.57 | 0.22 | 98 | 1009.7 |
| 20260507130545 | 64 | 0 | 0.0 | 1.7 | 0.06 | 0.56 | 0.21 | 98 | 1010.0 |
| 20260507130055 | 64 | 0 | 0.0 | 1.7 | 0.06 | 0.56 | 0.21 | 98 | 1010.2 |
| 20260507125541 | 64 | 0 | 0.0 | 3.5 | 0.06 | 0.56 | 0.21 | 98 | 1010.2 |
| 20260507125042 | 64 | 0 | 0.0 | 3.5 | 0.05 | 0.55 | 0.20 | 98 | 1010.3 |
| 20260507124547 | 64 | 24 | 0.0 | 2.6 | 0.05 | 0.55 | 0.20 | 98 | 1010.6 |
| 20260507124041 | 64 | 0 | 0.0 | 3.5 | 0.04 | 0.54 | 0.19 | 98 | 1010.8 |
| 20260507123544 | 64 | 0 | 0.0 | 3.5 | 0.04 | 0.54 | 0.19 | 98 | 1011.1 |
| 20260507123051 | 64 | 0 | 0.9 | 3.5 | 0.04 | 0.52 | 0.18 | 97 | 1011.2 |
| 20260507122541 | 64 | 0 | 0.0 | 1.7 | 0.03 | 0.52 | 0.17 | 98 | 1011.5 |
| 20260507122042 | 64 | 45 | 0.0 | 1.7 | 0.03 | 0.51 | 0.16 | 98 | 1011.4 |
| 20260507121549 | 64 | 45 | 0.0 | 1.7 | 0.03 | 0.51 | 0.16 | 98 | 1011.1 |
| 20260507121044 | 64 | 0 | 0.0 | 1.7 | 0.02 | 0.50 | 0.15 | 98 | 1010.7 |
| 20260507120543 | 64 | 0 | 0.0 | 0.9 | 0.02 | 0.50 | 0.15 | 98 | 1010.5 |
| 20260507120054 | 64 | 0 | 0.0 | 0.9 | 0.02 | 0.50 | 0.15 | 98 | 1010.4 |